Location: Unspecified
(23.9503°N, 0.0000°E)
Time: 00:41:31
(UTC+00:00)

SL-14 DEB - Visible Passes

Search period start: 04 April 2026 00:00
Search period end: 14 April 2026 00:00
Orbit: 825 x 842 km, 82.5° (Epoch: 28 March)

Date Brightness Start Highest point End Pass type
(mag) Time Alt. Az. Time Alt. Az. Time Alt. Az.
4 Apr ? 19:56:25 10° S 20:01:57 86° W 20:07:32 10° N visible
5 Apr ? 19:39:23 10° S 19:44:54 75° E 19:50:27 10° N visible
6 Apr ? 19:22:26 10° S 19:27:50 58° E 19:33:18 10° NNE visible
6 Apr ? 21:09:09 10° W 21:10:28 11° WNW 21:11:47 10° WNW visible
7 Apr ? 19:05:33 10° SSE 19:10:48 45° E 19:16:04 10° NNE visible
7 Apr ? 20:50:24 10° WSW 20:53:17 14° WNW 20:56:11 10° NW visible
8 Apr ? 18:48:46 10° SSE 18:53:46 35° E 18:58:46 10° NNE visible
8 Apr ? 20:32:21 10° WSW 20:36:06 18° WNW 20:39:53 10° NW visible
9 Apr ? 20:14:36 10° SW 20:18:56 23° W 20:23:19 10° NNW visible
10 Apr ? 19:57:01 10° SW 20:01:47 30° W 20:06:36 10° NNW visible
11 Apr ? 19:39:33 10° SSW 19:44:39 37° W 19:49:47 10° NNW visible
12 Apr ? 19:22:11 10° SSW 19:27:31 48° W 19:32:53 10° N visible
13 Apr ? 19:04:55 10° SSW 19:10:23 62° W 19:15:54 10° N visible
